THY1TG LTBS-LGKR

Flight info

Callsign THY1TG
Flight time N/A
Altitude 34000
Route SOTIV UN136 RDS UM601 ASTIS UP37 KOR UL53 PARNA
Aircraft B739/M-SDE2E3FGHIRWXY/LB1

Departure

Time 2026-05-01 14:39
Airport Dalaman International Airport (LTBS)

Arrival

Time N/A
Airport Corfu Ioannis Kapodistrias International Airport (LGKR)
Time Latitude Longitude Altitude Speed Heading
2026-05-01 14:17 36.72036 28.78954 29 ft 0 kts 285°
2026-05-01 14:30 36.72031 28.78977 29 ft 2 kts 285°
2026-05-01 14:30 36.72027 28.78995 29 ft 2 kts 285°
2026-05-01 14:30 36.72023 28.79013 29 ft 2 kts 285°
2026-05-01 14:31 36.72012 28.79047 28 ft 2 kts 325°
2026-05-01 14:31 36.71998 28.79054 28 ft 2 kts 359°
2026-05-01 14:31 36.71990 28.79053 28 ft 1 kts 19°
2026-05-01 14:31 36.71984 28.79051 28 ft 0 kts 16°
2026-05-01 14:33 36.71991 28.79054 28 ft 2 kts 16°
2026-05-01 14:33 36.72018 28.79063 28 ft 8 kts 15°
2026-05-01 14:33 36.72115 28.79095 29 ft 19 kts 15°
2026-05-01 14:34 36.72242 28.79139 32 ft 18 kts 15°
2026-05-01 14:34 36.72359 28.79179 34 ft 15 kts 15°
2026-05-01 14:34 36.72447 28.79210 34 ft 11 kts 15°
2026-05-01 14:34 36.72525 28.79236 33 ft 13 kts 15°
2026-05-01 14:35 36.72606 28.79264 33 ft 10 kts 17°
2026-05-01 14:35 36.72660 28.79283 32 ft 5 kts 15°
2026-05-01 14:35 36.72680 28.79296 31 ft 2 kts 43°
2026-05-01 14:35 36.72689 28.79320 30 ft 0 kts 77°
2026-05-01 14:36 36.72687 28.79349 30 ft 5 kts 104°
2026-05-01 14:36 36.72674 28.79411 29 ft 13 kts 105°
2026-05-01 14:36 36.72650 28.79516 28 ft 11 kts 105°
2026-05-01 14:36 36.72630 28.79599 27 ft 8 kts 116°
2026-05-01 14:37 36.72603 28.79638 26 ft 4 kts 147°
2026-05-01 14:37 36.72582 28.79651 26 ft 2 kts 157°
2026-05-01 14:37 36.72554 28.79661 26 ft 4 kts 171°
2026-05-01 14:37 36.72532 28.79662 26 ft 2 kts 189°
2026-05-01 14:38 36.72520 28.79658 26 ft 1 kts 193°
2026-05-01 14:38 36.72371 28.79607 25 ft 59 kts 195°
2026-05-01 14:38 36.71758 28.79399 23 ft 123 kts 197°
2026-05-01 14:38 36.70757 28.79056 62 ft 168 kts 196°
2026-05-01 14:39 36.69662 28.78676 781 ft 160 kts 198°
2026-05-01 14:39 36.68528 28.78226 1127 ft 185 kts 200°
2026-05-01 14:39 36.67279 28.77746 1700 ft 195 kts 195°
2026-05-01 14:39 36.65902 28.77336 2215 ft 212 kts 194°
2026-05-01 14:40 36.64437 28.76885 2830 ft 226 kts 196°
2026-05-01 14:40 36.62918 28.76191 3400 ft 241 kts 213°
2026-05-01 14:40 36.61726 28.74714 4108 ft 249 kts 242°
2026-05-01 14:40 36.61085 28.72652 4759 ft 262 kts 254°
2026-05-01 14:41 36.60578 28.70503 5664 ft 264 kts 255°
2026-05-01 14:41 36.60054 28.68336 6625 ft 264 kts 254°
2026-05-01 14:41 36.59517 28.66176 7554 ft 264 kts 254°
2026-05-01 14:41 36.58964 28.63996 8442 ft 266 kts 254°
2026-05-01 14:42 36.58418 28.61840 9344 ft 266 kts 254°
2026-05-01 14:42 36.57869 28.59653 10173 ft 268 kts 255°
2026-05-01 14:42 36.57308 28.57404 10758 ft 279 kts 255°
2026-05-01 14:42 36.56720 28.55028 11201 ft 295 kts 255°
2026-05-01 14:43 36.56148 28.52523 11631 ft 310 kts 257°
2026-05-01 14:43 36.55588 28.49895 12073 ft 323 kts 257°
2026-05-01 14:43 36.55006 28.47160 12543 ft 334 kts 257°
2026-05-01 14:43 36.54395 28.44344 13252 ft 338 kts 257°
2026-05-01 14:44 36.53780 28.41556 13970 ft 341 kts 257°
2026-05-01 14:44 36.52516 28.35848 15436 ft 344 kts 256°
2026-05-01 14:44 36.51883 28.32995 16119 ft 347 kts 256°
2026-05-01 14:45 36.51242 28.30109 16787 ft 349 kts 255°
2026-05-01 14:45 36.49951 28.24268 18114 ft 353 kts 255°
2026-05-01 14:45 36.49298 28.21330 18750 ft 355 kts 255°
2026-05-01 14:46 36.48647 28.18401 19360 ft 357 kts 256°
2026-05-01 14:46 36.47318 28.12434 20625 ft 359 kts 256°
2026-05-01 14:46 36.46649 28.09439 21237 ft 360 kts 256°
2026-05-01 14:47 36.45978 28.06435 21725 ft 364 kts 256°
2026-05-01 14:47 36.45307 28.03434 22290 ft 365 kts 256°
2026-05-01 14:47 36.44630 28.00407 22866 ft 366 kts 256°
2026-05-01 14:48 36.43263 27.94297 23859 ft 371 kts 256°
2026-05-01 14:48 36.42562 27.91181 24349 ft 373 kts 257°
2026-05-01 14:48 36.41618 27.84930 25303 ft 373 kts 270°
2026-05-01 14:49 36.41934 27.78477 26211 ft 375 kts 276°
2026-05-01 14:49 36.42496 27.71987 27030 ft 379 kts 276°
2026-05-01 14:50 36.42923 27.66598 27781 ft 380 kts 276°